sat.trackr.live / text

‹ back to catalog

STARLINK-35795

NORAD 66369 · 2025-254X

PAYLOAD ACTIVE UNKNOWN

§ Identity

Operator
Country
US
Launch date
2025-11-06
Launch site
AFWTR
Launch vehicle
Mass (kg)
RCS (m²)

Purposes: comms

External: N2YO · Heavens-Above · Gunter

§ Orbital elements

Epoch: 2026-09-20T15:38:02.080608Z

Period
93.85 min
Inclination
53.1616°
Eccentricity
0.0001332
Mean motion
15.34396604 rev/d
Perigee alt
461.8 km
Apogee alt
463.6 km
Semi-major
6,840.9 km
B*
1.7463e-4
RAAN
42.6819°
Arg perigee
95.5866°
Mean anomaly
264.5289°
Rev number
4,888

§ Raw data

STARLINK-357951 66369U 25254X   26263.65141297  .00005528  00000+0  17463-3 0  99952 66369  53.1616  42.6819 0001332  95.5866 264.5289 15.34396604 48887

JSON: /api/v1/satellites/66369 · /tle

For live sub-satellite position, see the globe view (requires WebGL).

§ Visibility from observer

Set your observer location to see the next 7 days of passes ≥ 10°. The values pass through the URL so the page stays shareable.

No JS? Fill the form by hand. The geolocation button needs JavaScript.